STARLINK-3058, 49138

Orbit data source: Space-Track

STARLINK-3058, 49138 is a payload satellite owned by SpaceX/Seattle (US) in LEO that was launched on Tue, 14 Sep 2021 UTC via an FALCON 9 launch vehicle from the Air Force Western Test Range (AFWTR). Payload-class satellites include a variety of spacecraft equipped with specific instruments for various scientific and technological missions. These include communications satellites like Starlink; space stations such as the ISS; scientific satellites like the Hubble; Earth observation satellites from companies like Planet Labs, Umbra, and HawkEye 360; GPS; miniature CubeSats for education and research; and military/defense satellites.

Loading next visibility...
Identifier
49138, 2021-082J
Orbit
LEO
Country
Flag of USUS
Related business
Manufacturer
SpaceX/Seattle
Mission
Operational Commercial Communications
Bus & Motor
STARLINK, Unknown motor
Mass
297 kg wet, ~275 kg dry
Launch date (UTC)
2021-09-14 (5 years ago)
Launch vehicle
FALCON 9
Launch site
Air Force Western Test Range (AFWTR)
Object type
Payload
Rocket body
Debris
Shape & HBR
Box + 1 Pan, 10.1 m
Radar Cross Section
13.562 m², Large (>1 m²)

Expand to show TLE details & history
Last TLE update: 2 days ago

TLE from 2 days ago
0 STARLINK-3058
1 49138U 21082J   26171.32403437  .00000265  00000-0  29984-4 0  9990
2 49138  70.0001  35.6855 0002948 269.8653  90.2168 14.98331138261353
Epoch: 2026-06-20T07:46Z
TLE epoch observation values (Epoch: 2026-06-20T07:46:36.569Z)
Latitude
-0.00005°
Longitude
10.49281°
Altitude
574.485 km
Speed
7.574 km/s
True Right ascension
02h 22m 44s
True Declination
0° 00' 00"
Sunlit
Object was in daylight at epoch
Visualization orbit readout
Latitude
Unknown
Longitude
Unknown
Altitude
Unknown
Speed
Unknown
Apparent Right ascension
Unknown
Apparent Declination
Unknown
Sunlit
N/A
Visualization observer readout
Local Sidereal Time
21:39:15
Azimuth
Unknown
Elevation
Unknown
Doppler factor
Unknown
Orbital elements
Apogee altitude
572.049 km
Perigee altitude
567.952 km
Semi-major axis
6,948.138 km
Eccentricity
0.00029
Inclination
70.0001°
RAAN
35.6855°
Arg. of periapsis
269.8653°
True anomaly
90.25058°
Mean anomaly
90.2168°
Eccentric anomaly
90.23369°
Mean motion
3.74749 °/min
Orbital period
96.06 mins
BSTAR
0.000029984
Loading maneuver chart data...
Computing Atmospheric mass density...

Documentation

Showing up to 5 results
|